Date,TemperatureHighF,TemperatureAvgF,TemperatureLowF,DewpointHighF,DewpointAvgF,DewpointLowF,HumidityHigh,HumidityAvg,HumidityLow,PressureMaxIn,PressureMinIn,WindSpeedMaxMPH,WindSpeedAvgMPH,GustSpeedMaxMPH,PrecipitationSumIn
2013-1-1,50,47,41,50,45,36,98,95,81,29.96,29.78,2,0,0,0.99
2013-1-2,48,44,40,48,43,40,98,97,93,29.96,29.75,4,1,0,0.07
2013-1-3,46,39,29,41,37,27,98,92,79,30.14,29.92,3,1,0,0.00
2013-1-4,50,35,26,32,26,22,98,74,34,30.19,30.09,5,1,0,0.00
2013-1-5,50,36,24,39,29,22,98,79,42,30.20,30.06,2,0,0,0.02
2013-1-6,53,43,37,42,39,34,98,86,65,30.07,29.93,4,1,0,0.01
2013-1-7,55,38,27,35,31,26,98,80,42,30.22,30.05,5,1,0,0.00
2013-1-8,53,40,26,45,36,26,98,88,66,30.26,30.16,3,0,0,0.00
2013-1-9,64,53,46,59,52,45,98,95,83,30.30,30.21,2,0,0,0.00
2013-1-10,64,56,49,59,54,48,98,94,78,30.30,30.14,3,0,0,0.03
2013-1-11,61,58,56,60,58,55,98,98,98,30.13,29.98,4,0,0,1.49
2013-1-12,70,62,56,69,61,55,98,97,90,30.03,29.93,3,0,0,0.01
2013-1-13,66,60,54,65,59,54,98,98,97,29.99,29.89,2,0,0,0.14
2013-1-14,63,60,55,63,60,55,98,98,98,29.96,29.88,2,0,0,1.80
2013-1-15,61,58,55,61,57,55,98,98,98,29.95,29.82,3,0,0,2.96
2013-1-16,58,55,53,58,54,52,98,98,98,29.85,29.77,3,0,0,1.27
2013-1-17,55,49,34,54,49,34,98,98,98,30.05,29.50,8,0,0,2.15
2013-1-18,52,37,29,42,33,28,98,89,42,30.32,30.06,4,1,0,0.00
2013-1-19,53,35,26,40,32,25,98,88,51,30.30,30.04,4,0,0,0.00
2013-1-20,61,45,29,43,36,29,98,74,44,30.02,29.87,4,1,0,0.00
2013-1-21,56,41,32,37,30,18,98,67,43,29.91,29.82,4,2,0,0.00
2013-1-22,43,32,26,18,13,10,56,45,29,30.10,29.87,6,2,0,0.00
2013-1-23,52,36,29,32,23,11,93,59,44,30.15,29.96,6,2,0,0.00
2013-1-24,50,40,29,42,26,15,98,60,29,30.24,29.89,6,2,0,0.00
2013-1-25,35,29,26,35,22,9,98,77,45,30.25,29.92,3,1,0,0.01
2013-1-26,55,42,32,40,35,30,98,79,50,30.12,29.91,4,1,0,0.08
2013-1-27,50,38,27,39,33,26,98,83,62,30.31,30.12,3,1,0,0.00
2013-1-28,52,44,38,51,43,35,98,94,79,30.27,30.12,2,0,0,0.00
2013-1-29,63,52,43,62,52,42,98,98,98,30.12,29.85,2,0,0,0.15
2013-1-30,63,56,43,63,56,42,98,98,98,29.83,29.37,7,2,0,1.60
2013-1-31,48,37,29,42,30,25,98,78,50,29.93,29.51,8,2,0,0.01
2013-2-1,42,32,23,36,19,8,98,59,28,30.17,29.85,7,2,0,0.00
2013-2-2,42,29,19,34,23,12,98,81,30,30.16,29.89,3,0,0,0.02
2013-2-3,49,38,30,40,34,30,98,85,60,29.89,29.77,5,1,0,0.30
2013-2-4,51,38,27,37,31,26,94,77,44,29.97,29.84,3,0,0,0.00
2013-2-5,61,44,34,49,41,32,98,89,62,29.87,29.76,4,1,0,0.00
2013-2-6,68,48,37,42,37,30,98,71,26,30.01,29.86,3,1,0,0.00
2013-2-7,47,43,36,47,42,33,98,95,84,30.04,29.79,3,0,0,0.25
2013-2-8,55,46,34,52,44,33,98,93,71,29.98,29.75,4,1,0,0.00
2013-2-9,63,42,27,38,31,27,98,71,26,30.14,29.97,5,1,0,0.00
2013-2-10,56,44,35,47,38,32,98,83,42,30.20,30.00,4,1,0,1.10
2013-3-17,76,66,54,56,52,49,85,63,45,29.81,29.71,4,1,0,2.73
2013-3-18,54,48,45,54,47,44,98,96,87,29.87,29.69,2,0,0,0.49
2013-3-19,59,50,37,55,44,30,98,83,48,29.93,29.71,5,2,0,0.00
2013-3-20,66,46,34,36,15,-42,88,43,1,29.95,29.69,4,2,0,0.00
2013-3-21,51,36,26,34,16,0,87,46,12,29.78,29.68,4,2,0,0.00
2013-3-22,52,40,28,34,24,16,71,56,34,29.87,29.77,4,0,0,0.00
2013-3-23,55,46,40,52,43,34,98,92,70,29.86,29.67,3,0,0,0.42
2013-3-24,51,47,41,50,46,38,98,97,88,29.69,29.35,4,1,0,1.77
2013-3-25,43,36,31,37,28,24,86,70,54,29.81,29.44,7,3,0,0.00
2013-3-26,46,36,30,31,27,24,82,70,55,30.05,29.77,4,2,0,0.00
2013-3-27,61,41,25,30,25,22,93,59,22,30.11,30.03,4,1,0,0.00
2013-3-28,67,44,28,31,26,0,86,57,8,30.15,30.03,5,1,0,0.00
2013-3-29,66,44,29,42,31,25,88,64,28,30.19,30.00,4,1,0,0.00
2013-3-30,73,55,43,55,45,40,98,73,38,30.02,29.82,4,1,0,0.18
2013-3-31,67,58,53,61,56,52,98,95,69,29.84,29.66,3,1,0,1.12
2013-4-1,70,57,45,56,48,42,98,75,45,29.83,29.65,5,1,0,0.00
2013-4-2,68,53,42,42,20,-40,92,44,1,29.98,29.82,5,2,0,0.00
2013-4-3,62,53,45,36,32,26,69,46,31,30.04,29.89,5,1,0,0.00
2013-4-4,51,42,37,44,40,33,98,93,50,30.01,29.76,4,1,0,0.46
2013-4-5,68,51,39,54,43,34,98,79,28,29.89,29.72,4,1,0,0.00
2013-4-6,73,54,35,47,39,34,98,63,26,30.03,29.90,5,1,0,0.00
2013-4-7,74,56,38,52,45,37,96,70,41,30.05,29.91,3,1,0,0.00
2013-4-8,78,62,49,58,52,48,96,74,45,29.99,29.87,4,1,0,0.00
2013-4-9,84,65,49,63,55,48,98,75,41,30.02,29.91,5,1,0,0.00
2013-4-10,89,67,51,64,57,50,98,76,36,29.95,29.76,4,1,0,0.00
2013-4-11,78,66,56,70,61,55,98,87,57,29.81,29.51,4,1,0,1.32
2013-4-12,76,62,49,62,54,42,98,78,33,29.73,29.47,4,1,0,0.60
2013-4-13,83,64,48,47,34,-30,85,44,1,29.85,29.70,4,2,0,0.00
2013-4-14,66,54,43,57,47,37,98,79,47,29.92,29.80,3,0,0,0.20
2013-4-15,76,62,53,63,57,52,98,87,60,30.01,29.78,4,1,0,0.07
2013-4-16,81,67,58,66,62,57,98,86,58,30.13,30.00,3,1,0,0.00
2013-4-17,82,67,59,75,64,59,98,91,59,30.08,29.91,4,0,0,0.27
2013-4-18,79,67,60,67,62,59,98,86,59,29.95,29.77,5,1,0,0.00
2013-4-19,67,60,45,66,58,38,98,93,76,29.80,29.59,4,2,0,0.80
2013-4-20,69,52,37,39,34,29,83,54,27,30.09,29.80,5,2,0,0.00
2013-4-21,68,52,35,43,38,33,98,63,33,30.23,30.10,6,1,0,0.00
2013-4-22,71,56,42,47,43,39,93,64,34,30.21,30.00,5,1,0,0.00
2013-4-23,74,56,37,52,44,36,96,69,38,30.10,29.93,4,1,0,0.00
2013-4-24,73,59,48,63,56,48,98,91,63,29.98,29.90,3,0,0,0.04
2013-4-25,78,58,43,53,41,-34,98,64,1,30.14,29.94,4,1,0,0.00
2013-4-26,74,56,38,54,42,34,95,62,34,30.26,30.11,4,1,0,0.00
2013-4-27,57,53,51,56,53,51,98,98,88,30.21,30.06,2,0,0,0.95
2013-4-28,55,53,50,55,52,50,98,98,98,30.08,29.89,3,0,0,4.26
2013-4-29,74,60,53,64,57,52,98,89,58,29.91,29.76,4,1,0,0.02
2013-4-30,78,61,46,64,56,46,98,84,51,29.97,29.82,4,0,0,0.00
2013-5-1,72,63,58,60,58,56,98,84,62,30.07,29.97,4,1,0,0.00
2013-5-2,65,61,58,60,58,56,96,91,82,30.08,30.00,4,1,0,0.00
2013-5-3,63,58,55,58,56,54,98,95,75,30.01,29.87,4,1,0,0.01
2013-5-4,57,52,50,56,51,48,98,96,84,29.87,29.74,3,1,0,1.27
2013-5-5,55,52,50,54,52,49,98,98,98,29.75,29.63,3,1,0,2.12
2013-5-6,54,50,44,53,49,43,98,98,94,29.78,29.64,2,0,0,0.10
2013-5-7,67,55,46,61,53,45,98,91,66,29.81,29.72,3,0,0,0.04
2013-5-8,72,60,48,62,55,48,98,87,62,29.91,29.79,3,0,0,0.00
2013-5-9,82,64,50,65,57,50,98,82,42,29.97,29.87,3,1,0,0.00
2013-5-10,77,64,52,67,60,52,98,90,64,29.94,29.80,3,0,0,0.04
2013-5-11,75,63,56,67,61,56,98,95,70,29.84,29.69,3,1,0,0.19
2013-5-12,70,57,44,59,46,35,98,72,32,29.93,29.73,4,2,0,0.00
2013-5-13,71,52,37,44,37,31,98,64,24,30.05,29.92,3,1,0,0.00
2013-5-14,80,57,37,59,48,37,98,76,43,30.12,29.94,4,1,0,0.00
2013-5-15,91,67,52,61,56,52,98,74,27,29.98,29.82,6,1,0,0.00
2013-5-16,84,67,57,67,62,56,98,85,50,29.92,29.82,3,1,0,0.00
2013-5-17,78,66,56,69,62,56,98,89,58,29.96,29.87,2,0,0,0.07
2013-5-18,68,64,61,68,64,61,98,98,98,29.96,29.88,2,0,0,0.34
2013-5-19,68,65,62,67,65,61,98,98,98,29.95,29.83,2,0,0,0.71
2013-5-20,84,66,57,76,65,56,98,96,74,29.96,29.86,2,0,0,0.20
2013-5-21,86,72,64,79,70,63,98,93,70,29.89,29.74,3,1,0,0.13
2013-5-22,83,70,63,76,68,62,98,93,71,29.84,29.68,2,0,0,0.18
2013-5-23,83,69,63,68,63,57,98,82,52,29.79,29.71,3,1,0,0.65
2013-5-24,79,65,52,60,52,40,94,67,29,30.04,29.78,4,1,0,0.00
2013-5-25,85,59,43,56,45,35,98,68,17,30.15,29.99,3,1,0,2.16
2013-5-26,80,70,58,67,59,50,92,71,44,30.11,29.97,3,1,0,0.00
2013-5-27,84,66,51,69,60,50,98,84,49,30.09,29.95,3,0,0,1.34
2013-5-28,86,70,60,68,64,59,98,83,53,30.06,29.96,4,0,0,0.00
2013-5-29,84,69,58,70,64,57,98,86,58,30.07,29.98,3,0,0,0.00
2013-5-30,82,70,61,70,65,60,98,88,62,30.11,29.98,2,0,0,0.00
2013-5-31,84,71,63,71,67,63,98,89,62,30.07,29.93,3,0,0,0.00
2013-6-1,83,71,64,73,68,63,98,92,66,29.97,29.84,2,0,0,0.06
2013-6-2,74,69,65,74,69,65,98,98,98,29.86,29.72,2,0,0,1.33
2013-6-3,85,70,63,73,67,62,98,91,60,29.80,29.69,2,0,0,0.00
2013-6-4,84,70,58,73,66,57,98,89,54,29.87,29.78,2,0,0,0.00
2013-6-5,82,71,64,75,69,63,98,94,75,29.90,29.75,2,0,0,0.83
2013-6-6,72,66,63,72,66,63,98,98,98,29.78,29.62,2,0,0,0.06
2013-6-7,80,69,64,75,68,63,98,96,79,29.67,29.51,3,0,0,0.44
2013-6-8,77,68,59,76,67,58,98,97,89,29.94,29.67,2,0,0,0.00
2013-6-9,82,70,63,77,68,62,98,95,76,29.97,29.85,3,0,0,2.61
2013-6-10,76,69,65,75,69,64,98,98,93,29.86,29.76,2,0,0,0.33
2013-6-11,87,74,67,77,71,66,98,92,66,29.87,29.79,3,1,0,0.15
2013-6-12,92,76,66,80,73,65,98,92,65,29.89,29.79,3,0,0,0.00
2013-6-13,93,76,67,79,71,66,98,88,57,29.80,29.56,4,1,0,0.54
2013-6-14,84,69,59,72,65,58,98,89,58,29.86,29.65,3,0,0,0.01
2013-6-15,83,68,56,71,64,55,98,88,56,29.99,29.87,3,0,0,0.00
2013-6-16,85,70,58,75,67,58,98,91,65,30.01,29.85,3,0,0,0.14
2013-6-17,80,72,67,78,71,66,98,97,87,29.91,29.78,2,0,0,0.74
2013-6-18,78,72,68,77,70,68,98,97,82,29.79,29.65,2,0,0,0.06
2013-6-19,81,71,66,74,69,65,98,94,76,29.94,29.72,2,0,0,0.10
2013-6-20,80,69,61,74,68,61,98,95,80,30.05,29.93,3,0,0,0.00
2013-6-21,84,70,62,73,67,61,98,91,61,30.10,29.99,2,0,0,0.00
2013-6-22,86,70,60,72,65,60,98,87,56,30.09,29.94,2,0,0,0.00
2013-6-23,84,71,59,76,68,59,98,92,70,30.06,29.94,2,0,0,0.00
2013-6-24,86,75,69,77,72,68,98,91,70,30.06,29.93,4,0,0,0.00
2013-6-25,79,70,64,77,69,63,98,97,86,30.01,29.87,2,0,0,0.69
2013-6-26,81,71,64,80,70,64,98,98,96,29.91,29.77,3,0,0,0.14
2013-6-27,83,73,68,81,73,68,98,98,87,29.81,29.63,2,0,0,0.29
2013-6-28,91,74,66,79,71,65,98,91,56,29.68,29.48,2,0,0,0.39
2013-6-29,84,72,64,74,68,63,98,90,52,29.56,29.49,2,0,0,0.00
2013-6-30,83,70,59,75,67,59,98,92,66,29.65,29.54,3,0,0,0.00
2013-7-1,82,70,66,75,69,65,98,95,76,29.77,29.63,2,0,0,0.16
2013-7-2,78,70,66,76,70,65,98,97,87,29.94,29.77,3,0,0,0.87
2013-7-3,73,68,65,72,68,64,98,98,98,30.02,29.91,2,0,0,2.20
2013-7-4,73,68,65,73,68,64,98,98,98,30.03,29.94,1,0,0,2.10
2013-7-5,74,71,68,74,70,68,98,98,98,30.06,29.98,2,0,0,0.96
2013-7-6,76,71,67,76,70,67,98,98,98,30.04,29.91,2,0,0,2.20
2013-7-7,76,72,68,76,71,68,98,98,98,30.01,29.92,2,0,0,0.02
2013-7-8,80,72,67,79,71,66,98,98,88,30.02,29.93,2,0,0,0.27
2013-7-9,88,74,70,81,73,70,98,96,75,30.01,29.90,2,0,0,0.13
2013-7-10,86,74,69,81,73,69,98,96,76,29.96,29.79,2,0,0,0.13
2013-7-11,77,71,68,77,70,68,98,98,98,29.82,29.71,0,0,0,0.01
2013-7-12,83,76,66,79,74,66,98,94,81,29.79,29.70,3,1,0,0.15
2013-7-13,67,67,66,67,66,65,98,98,98,29.90,29.79,1,0,0,0.01
2013-7-14,74,72,70,74,71,70,98,98,98,30.08,29.99,2,0,0,0.30
2013-7-15,81,72,68,78,72,67,98,97,88,30.16,30.06,3,0,0,0.18
2013-7-16,87,78,70,79,75,70,98,91,71,30.16,30.07,2,1,0,0.00
2013-7-17,87,72,66,82,70,65,98,96,72,30.12,29.96,3,0,0,0.40
2013-7-18,84,78,70,80,76,69,98,94,80,29.98,29.90,3,0,0,0.00
2013-7-19,85,75,67,81,73,66,98,94,82,29.97,29.84,2,0,0,0.00
2013-7-20,80,71,67,80,70,66,98,98,84,29.89,29.78,2,0,0,0.09
2013-7-21,79,72,68,79,71,67,98,98,92,29.87,29.76,3,0,0,0.73
2013-7-22,80,76,73,78,76,73,98,97,94,29.82,29.70,4,1,0,0.21
2013-7-23,81,77,67,79,75,67,98,96,92,29.77,29.65,2,1,0,0.00
2013-7-24,83,79,75,78,76,74,98,91,84,29.69,29.65,3,1,0,0.01
2013-7-25,82,76,66,76,73,66,98,89,78,29.79,29.75,2,1,0,0.00
2013-7-26,79,74,69,76,72,68,98,95,90,29.92,29.87,2,1,0,0.35
2013-7-27,76,76,76,75,75,75,97,97,97,29.75,29.75,1,1,0,0.00
2013-7-28,73,72,72,73,72,71,98,98,98,29.82,29.80,1,1,0,0.00
2013-7-29,82,79,77,74,67,63,92,67,52,29.94,29.92,2,1,0,0.00
2013-8-1,86,82,74,78,75,73,98,82,70,29.81,29.72,2,1,0,0.00
2013-8-2,82,75,70,78,74,69,98,96,83,29.87,29.81,3,0,0,0.00
2013-8-3,84,72,64,74,69,63,98,91,68,29.89,29.82,3,0,0,0.00
2013-8-4,86,75,66,77,72,66,98,90,71,29.87,29.79,2,1,0,0.00
2013-8-5,84,71,63,77,70,62,98,95,74,29.91,29.81,3,0,0,0.00
2013-8-6,82,75,69,79,73,68,98,95,78,29.86,29.79,2,0,0,0.03
2013-8-7,74,72,70,74,71,70,98,98,98,29.89,29.83,1,0,0,2.59
2013-8-8,77,72,70,76,72,69,98,98,98,29.91,29.84,3,0,0,0.10
2013-8-9,81,73,69,80,73,68,98,98,96,29.94,29.86,2,0,0,0.19
2013-8-10,81,73,68,80,72,67,98,98,95,30.00,29.89,5,0,0,2.25
2013-8-11,77,72,70,77,72,70,98,98,98,30.01,29.93,2,0,0,0.52
2013-8-12,78,73,67,78,72,66,98,98,98,29.97,29.84,2,0,0,0.11
2013-8-13,82,75,70,79,73,70,98,95,83,29.81,29.70,2,0,0,0.04
2013-8-14,78,75,70,75,73,69,98,95,86,29.89,29.77,2,0,0,0.00
2013-8-15,71,67,61,68,65,61,98,93,81,29.95,29.87,3,0,0,0.00
2013-8-16,70,65,61,68,64,61,98,97,89,29.98,29.90,2,0,0,0.01
2013-8-17,65,64,63,64,64,62,98,98,98,30.00,29.93,0,0,0,1.07
2013-8-18,70,66,63,69,65,62,98,98,98,30.07,29.96,2,0,0,0.68
2013-8-19,72,68,65,71,68,65,98,98,98,30.03,29.93,2,0,0,1.56
2013-8-20,75,71,67,75,70,66,98,98,98,30.04,29.96,2,0,0,0.00
2013-8-21,71,69,68,70,68,68,98,98,98,30.10,29.99,2,0,0,1.64
2013-8-22,78,75,68,77,74,68,98,98,98,30.01,29.96,3,1,0,0.13
2013-8-23,83,77,65,79,75,64,98,94,84,29.94,29.81,2,0,0,0.01
2013-8-24,78,70,63,75,68,63,98,96,86,30.14,29.90,3,0,0,0.00
2013-8-25,77,67,57,71,65,57,98,94,77,30.24,30.11,2,0,0,0.00
2013-8-26,79,67,57,73,65,57,98,95,76,30.17,29.99,2,0,0,0.00
2013-8-27,80,69,59,77,68,58,98,96,82,30.02,29.87,2,0,0,0.00
2013-8-28,84,73,65,79,72,64,98,96,83,29.90,29.81,2,0,0,0.00
2013-8-29,88,76,70,81,74,70,98,95,76,29.84,29.75,3,1,0,0.00
2013-8-30,83,75,69,79,74,68,98,96,85,29.90,29.78,3,0,0,0.00
2013-8-31,84,75,70,80,74,69,98,97,86,29.82,29.72,2,0,0,0.00
2013-9-1,84,74,67,80,73,66,98,95,82,29.77,29.67,0,0,0,0.00
2013-9-2,80,73,66,76,71,66,98,96,87,29.79,29.69,0,0,0,0.00
2013-9-3,85,73,67,76,70,66,99,92,67,29.82,29.69,2,0,0,0.02
2013-9-4,81,71,63,76,69,62,98,95,80,29.94,29.81,2,0,0,0.00
2013-9-5,83,71,63,76,69,62,98,94,71,29.97,29.89,3,0,0,0.00
2013-9-6,80,69,62,74,67,61,98,94,74,30.02,29.89,3,0,0,0.00
2013-9-7,81,69,60,75,67,60,98,95,76,29.99,29.83,0,0,0,0.00
2013-9-8,84,71,63,76,69,62,98,93,71,29.85,29.76,0,0,0,0.00
2013-9-9,84,71,63,76,69,62,98,94,73,29.97,29.84,2,0,0,0.00
2013-9-10,83,71,63,76,69,62,98,94,76,30.07,29.96,2,0,0,0.00
2013-9-11,83,71,63,76,69,62,98,94,73,30.08,29.93,2,0,0,0.00
2013-9-12,82,72,65,77,70,64,98,95,78,29.94,29.73,3,0,0,0.00
2013-9-13,80,70,59,70,66,58,98,87,58,29.73,29.64,3,0,0,0.00
2013-9-14,74,61,51,66,58,51,98,92,70,29.94,29.72,2,0,0,0.00
2013-9-15,77,65,55,72,63,54,98,95,81,30.03,29.93,2,0,0,0.00
2013-9-16,82,69,61,70,65,61,98,88,53,29.99,29.90,2,0,0,0.00
2013-9-17,72,66,62,65,63,61,98,91,73,30.12,29.97,3,0,0,0.00
2013-9-18,71,64,59,67,63,59,98,95,80,30.10,29.99,2,0,0,0.00
2013-9-19,79,66,55,74,64,55,98,95,81,30.04,29.92,2,0,0,0.00
2013-9-20,80,68,59,73,66,58,98,94,72,29.94,29.76,3,0,0,0.00
2013-9-21,68,65,61,67,64,61,98,98,98,29.78,29.51,2,0,0,1.51
2013-9-22,74,62,54,70,61,53,98,96,81,29.74,29.58,2,0,0,0.01
2013-9-23,74,62,56,68,60,55,98,94,77,29.89,29.74,3,0,0,0.00
2013-9-24,68,62,55,67,62,54,98,98,94,29.90,29.77,2,0,0,0.00
2013-9-25,64,63,61,63,62,60,98,98,98,29.76,29.69,0,0,0,1.29
2013-9-26,73,64,57,71,63,56,98,98,92,29.87,29.72,2,0,0,0.00
2013-9-27,73,62,51,69,60,51,98,95,83,30.00,29.87,2,0,0,0.00
2013-9-28,70,61,52,65,60,52,98,95,79,30.09,29.96,2,0,0,0.00
2013-9-29,68,59,50,65,58,50,98,96,81,30.02,29.86,2,0,0,0.00
2013-9-30,71,60,52,67,59,52,98,95,74,29.95,29.84,2,0,0,0.00
2013-10-1,74,61,51,70,60,51,98,96,84,30.03,29.90,2,0,0,0.00
2013-10-2,75,63,54,71,62,53,98,95,78,30.03,29.92,2,0,0,0.00
2013-10-3,77,66,59,71,64,58,98,95,77,30.00,29.91,2,0,0,0.00
2013-10-4,78,65,56,73,64,55,98,96,83,30.02,29.92,2,0,0,0.00
2013-10-5,79,66,58,73,65,57,98,95,78,29.99,29.86,2,0,0,0.00
2013-10-6,76,66,59,72,65,59,98,96,82,29.89,29.71,3,0,0,1.07
2013-10-7,69,63,58,66,62,57,98,96,88,29.80,29.65,2,1,0,0.34
2013-10-8,70,61,57,64,59,56,98,93,74,30.00,29.79,3,0,0,0.00
2013-10-9,68,58,48,62,56,48,98,93,72,30.05,29.94,3,0,0,0.00
2013-10-10,74,59,48,63,56,47,98,89,66,29.98,29.85,4,1,0,0.00
2013-10-11,75,61,51,66,58,50,98,90,65,29.89,29.79,2,0,0,0.00
2013-10-12,76,62,52,68,59,51,98,92,72,29.95,29.83,3,0,0,0.00
2013-10-13,74,62,53,70,61,52,98,95,80,30.03,29.94,2,0,0,0.00
2013-10-14,72,64,59,68,63,58,98,96,86,30.05,29.96,2,0,0,0.00
2013-10-15,65,62,57,64,61,56,98,98,93,30.00,29.89,2,0,0,0.06
2013-10-16,69,60,54,67,60,54,98,97,89,29.92,29.80,1,0,0,0.00
2013-10-17,67,62,58,66,62,58,98,98,98,29.82,29.71,2,0,0,0.31
2013-10-18,66,57,48,63,56,48,98,97,89,29.86,29.75,2,0,0,0.00
2013-10-19,62,55,51,60,54,50,98,97,86,29.81,29.73,3,0,0,0.00
2013-10-20,64,50,40,53,47,39,98,90,55,29.92,29.79,3,0,0,0.00
2013-10-21,66,51,40,62,50,40,98,96,81,29.99,29.86,4,0,0,0.00
2013-10-22,67,57,50,63,56,50,98,95,77,29.89,29.67,2,0,0,0.00
2013-10-23,55,50,41,52,44,37,98,82,60,29.88,29.63,5,1,0,0.00
2013-10-24,59,45,33,49,41,33,98,87,61,30.03,29.88,3,0,0,0.00
2013-10-25,55,43,32,42,34,28,98,74,36,30.18,30.03,3,1,0,0.00
2013-10-26,56,40,28,46,36,27,98,88,57,30.16,29.93,2,0,0,0.00
2013-10-27,65,52,41,59,50,40,98,93,78,29.98,29.88,3,0,0,0.00
2013-10-28,61,55,51,60,54,51,98,98,98,30.12,29.96,2,0,0,0.27
2013-10-29,67,54,44,65,53,43,98,97,87,30.20,30.10,2,0,0,0.00
2013-10-30,73,59,51,67,58,51,98,95,76,30.16,30.01,3,0,0,0.00
2013-10-31,67,60,55,66,59,54,98,98,98,30.04,29.73,2,0,0,0.05
2013-11-1,68,61,50,66,59,49,98,94,58,29.71,29.51,4,1,0,0.63
2013-11-2,61,52,44,54,48,42,98,87,62,29.86,29.62,4,1,0,0.00
2013-11-3,60,46,37,48,42,36,98,88,57,30.16,29.86,2,0,0,0.00
2013-11-4,57,44,34,45,40,34,98,86,58,30.33,30.18,5,0,0,0.00
2013-11-5,61,46,36,46,40,36,98,84,46,30.34,30.22,3,0,0,0.00
2013-11-6,66,55,44,62,54,43,98,96,85,30.23,29.99,2,0,0,0.00
2013-11-7,61,53,38,60,50,37,98,93,75,30.01,29.87,4,1,0,0.04
2013-11-8,61,47,35,39,32,20,98,61,22,30.15,30.01,3,1,0,0.00
2013-11-9,57,42,30,44,37,30,98,83,47,30.20,30.06,3,0,0,0.00
2013-11-10,72,54,41,48,41,37,94,64,33,30.10,30.01,3,1,0,0.00
2013-11-11,62,46,34,44,38,32,95,74,40,30.18,30.02,2,0,0,0.00
2013-11-12,62,43,27,48,35,20,98,73,54,30.27,29.94,6,1,0,0.00
2013-11-13,52,34,21,29,20,12,87,63,24,30.37,30.25,2,0,0,0.00
2013-11-14,59,37,23,31,23,-22,93,65,3,30.30,30.15,2,0,0,0.00
2013-11-15,48,41,30,48,39,25,98,92,80,30.17,30.02,2,0,0,0.43
2013-11-16,56,52,48,55,52,48,98,98,98,30.09,30.01,2,0,0,0.04
2013-11-17,59,56,54,58,56,53,98,98,98,30.04,29.77,2,0,0,1.33
2013-11-18,68,58,49,59,49,39,98,76,40,29.86,29.73,4,2,0,0.02
2013-11-19,60,46,37,44,37,32,96,72,39,30.04,29.84,3,1,0,0.00
2013-11-20,55,44,35,38,35,32,95,72,47,30.22,30.05,4,1,0,0.00
2013-11-21,50,48,47,50,46,37,98,92,70,30.27,30.18,2,0,0,0.09
2013-11-22,59,54,50,58,54,50,98,98,98,30.22,30.00,2,0,0,0.07
2013-11-23,56,49,35,56,47,32,98,94,72,30.04,29.95,4,2,0,0.01
2013-11-24,49,35,27,32,24,18,87,66,33,30.30,30.03,4,1,0,0.00
2013-11-25,44,34,25,33,20,12,98,61,29,30.32,30.10,3,0,0,0.11
2013-11-26,48,42,33,47,42,33,98,98,98,30.08,29.43,3,1,0,4.71
2013-11-27,43,35,25,43,32,22,98,90,76,29.95,29.40,6,2,0,0.03
2013-11-28,50,38,27,31,28,25,96,71,44,30.28,30.12,3,0,0,0.00
2013-11-29,60,38,25,39,31,24,98,80,38,30.35,30.22,4,0,0,0.00
2013-11-30,51,40,27,34,31,27,98,73,47,30.40,30.18,4,1,0,0.00
2013-12-1,59,43,32,46,38,30,98,83,57,30.18,29.84,2,0,0,0.00
2013-12-2,53,45,37,52,45,36,98,98,97,29.85,29.66,3,0,0,0.05
2013-12-3,52,51,48,51,50,47,98,98,98,29.79,29.70,1,0,0,0.09
2013-12-4,57,54,50,56,53,50,98,98,98,29.91,29.78,2,0,0,0.20
2013-12-5,66,61,56,65,60,56,98,98,98,29.95,29.85,3,0,0,1.45
2013-12-6,69,65,57,69,65,56,98,98,98,29.90,29.79,5,1,0,0.88
2013-12-7,64,54,45,62,53,45,98,97,84,30.15,29.85,4,1,0,0.03
2013-12-8,49,42,39,49,42,39,98,98,98,30.17,30.06,4,1,0,0.64
2013-12-9,50,44,39,49,43,38,98,98,98,30.07,29.86,2,0,0,1.85
2013-12-10,50,42,28,49,40,27,98,92,73,30.15,29.77,5,2,0,0.26
2013-12-11,51,34,23,39,29,22,98,83,49,30.27,30.14,3,1,0,0.00
2013-12-12,49,36,27,30,25,18,85,65,38,30.24,30.13,5,2,0,0.00
2013-12-13,52,36,23,35,27,20,94,73,35,30.20,30.05,3,0,0,0.00
2013-12-14,47,43,37,46,42,33,98,96,85,30.05,29.65,3,0,0,1.18
2013-12-15,47,38,31,46,36,30,98,94,84,29.98,29.63,6,2,0,0.00
2013-12-16,57,39,28,40,33,27,98,83,48,30.03,29.95,4,1,0,0.00
2013-12-17,50,46,32,40,39,32,98,76,67,30.02,29.89,3,2,0,0.00
2013-12-18,39,34,30,25,24,23,75,67,56,30.14,30.10,2,0,0,0.00
2013-12-19,64,40,26,38,28,22,93,67,21,30.17,30.04,4,0,0,0.00
2013-12-20,59,45,31,51,41,30,98,89,66,30.09,29.99,3,0,0,0.00
2013-12-21,62,54,50,61,53,50,98,98,97,30.00,29.83,2,0,0,0.35
2013-12-22,64,59,56,64,58,55,98,98,98,29.92,29.77,4,1,0,4.09
2013-12-23,55,48,37,55,47,36,98,97,90,30.04,29.86,4,1,0,0.01
2013-12-24,41,33,25,35,28,22,98,83,63,30.20,30.02,4,2,0,0.00
2013-12-25,41,32,19,27,23,19,98,72,44,30.32,30.17,4,1,0,0.00
2013-12-26,56,36,23,36,29,22,98,79,43,30.17,30.08,3,1,0,0.00
2013-12-27,52,37,26,35,30,25,97,77,43,30.27,30.16,3,0,0,0.00
2013-12-28,41,34,26,40,34,26,98,97,88,30.23,29.83,3,0,0,0.63
2013-12-29,53,44,39,50,43,39,98,96,84,29.84,29.64,6,1,0,0.36
2013-12-30,50,44,40,45,42,38,98,91,79,30.01,29.81,4,1,0,0.00
2013-12-31,49,38,30,38,31,26,92,77,48,30.19,29.99,4,1,0,0.00
2014-1-1,49,36,28,38,32,26,97,85,59,30.20,29.99,3,0,0,0.00
2014-1-2,48,38,21,48,37,18,98,95,82,29.97,29.55,5,1,0,0.16